Language: 


Des rapports , des résumés tant et plus, au choix de chacun....


Données statistiques de la station
Quotidien Rapport Décembre 31, 2017 Unités:  Anglais    Métrique   les deux
« Précédent Jour
Suivant Jour »
Quotidien Hebdomadaire Mensuel Annuel Actuel
  Haut: Bas: Moyen:
Température: TemperatureC °F 7.4 °F 11.8 °F
Pt de rosée: DewpointC °F 5.0 °F 11 °F
Humidité: Humidity % 76 % 93 %
Vitesse du vent: WindSpeedKMH mph 0.0 mph 21.3 mph
Rafales: WindSpeedGustKMH mph - -
Vent:- - SW
Pression: PressurehPa in 996.2 in -
Précipitation: 18.5 in    
Historical Graphs
 
 
Données statistiques pour Décembre 31, 2017
Heure Température Point de rosée Pression Vent Vitesse du vent Refales Humidité Pluie (taux horaire)
TemperatureC °F DewpointC °F PressurehPa in Calm     Humidity % HourlyPrecipMM in
00:01 10.5 °F 11.0 °F 1002.9 in South 6.1 mph 11.6 mph 98 % 0.8 in
00:03 10.5 °F 11.0 °F 1002.9 in SSW 6.4 mph 11.9 mph 98 % 0.8 in
00:08 10.5 °F 11.0 °F 1002.9 in South 11.1 mph 13.7 mph 98 % 0.5 in
00:13 10.6 °F 11.0 °F 1002.9 in Calm   13.7 mph 98 % 0.5 in
00:16 10.6 °F 11.0 °F 1002.9 in Calm   13.7 mph 98 % 0.5 in
00:21 10.6 °F 11.0 °F 1002.9 in South 7.9 mph 12.6 mph 98 % 0.5 in
00:22 10.6 °F 11.0 °F 1002.9 in SSW 9.7 mph 12.6 mph 98 % 0.8 in
00:26 10.6 °F 11.0 °F 1002.9 in Calm   12.6 mph 98 % 0.5 in
00:29 10.7 °F 11.0 °F 1002.9 in South 8.7 mph 14.0 mph 98 % 1.0 in
00:34 10.8 °F 11.0 °F 1002.9 in SSW 6.9 mph 14.0 mph 98 % 1.0 in
00:39 10.9 °F 11.0 °F 1002.9 in South 10.1 mph 14.0 mph 98 % 1.3 in
00:44 10.9 °F 11.0 °F 1001.9 in SSW 6.4 mph 13.0 mph 98 % 1.3 in
00:48 11.0 °F 11.0 °F 1001.9 in SSW 1.8 mph 11.9 mph 98 % 1.0 in
00:53 11.1 °F 11.0 °F 1001.9 in South 8.7 mph 14.3 mph 98 % 1.3 in
00:55 11.1 °F 11.0 °F 1001.9 in SW 10.1 mph 14.3 mph 98 % 1.5 in
01:00 11.2 °F 11.0 °F 1002.9 in SSW 10.5 mph 13.0 mph 98 % 1.8 in
01:04 11.3 °F 11.0 °F 1002.9 in SSW 9.3 mph 14.0 mph 98 % 2.3 in
01:06 11.3 °F 11.0 °F 1002.9 in SW 13.0 mph 14.0 mph 98 % 2.3 in
01:10 11.4 °F 11.0 °F 1002.9 in SSW 10.5 mph 16.6 mph 98 % 2.5 in
01:13 11.5 °F 12.0 °F 1002.9 in SSW 9.3 mph 16.6 mph 98 % 2.5 in
01:18 11.6 °F 12.0 °F 1002.9 in SSW 15.1 mph 16.6 mph 98 % 2.8 in
01:22 11.6 °F 12.0 °F 1002.9 in WSW 13.0 mph 17.2 mph 98 % 2.8 in
01:27 11.8 °F 12.0 °F 1002.9 in WSW 14.3 mph 17.7 mph 98 % 3.0 in
01:29 11.9 °F 12.0 °F 1002.9 in SSW 15.8 mph 21.6 mph 98 % 2.8 in
01:34 12.0 °F 12.0 °F 1002.9 in SSW 16.3 mph 21.9 mph 98 % 3.0 in
01:35 12.0 °F 12.0 °F 1002.9 in WSW 20.1 mph 21.9 mph 98 % 3.0 in
01:40 12.2 °F 12.0 °F 1002.9 in SSW 17.2 mph 24.5 mph 98 % 2.8 in
01:43 12.2 °F 12.0 °F 1002.9 in SW 18.3 mph 24.5 mph 98 % 2.8 in
01:48 12.3 °F 13.0 °F 1002.9 in SW 22.7 mph 24.8 mph 98 % 2.8 in
01:52 12.3 °F 13.0 °F 1002.9 in SSW 14.0 mph 24.8 mph 98 % 2.8 in
01:57 12.4 °F 13.0 °F 1002.9 in WSW 17.2 mph 28.8 mph 98 % 2.3 in
02:02 12.4 °F 13.0 °F 1002.9 in WSW 15.8 mph 28.8 mph 98 % 1.8 in
02:07 12.5 °F 13.0 °F 1002.9 in SSW 20.6 mph 26.2 mph 98 % 1.8 in
02:11 12.5 °F 13.0 °F 1002.9 in SW 25.6 mph 25.6 mph 98 % 1.5 in
02:16 12.5 °F 13.0 °F 1002.9 in SW 16.3 mph 25.6 mph 98 % 1.3 in
02:17 12.5 °F 13.0 °F 1002.9 in SSW 29.1 mph 29.1 mph 98 % 1.3 in
02:22 12.5 °F 13.0 °F 1002.9 in SW 13.7 mph 29.1 mph 98 % 0.8 in
02:24 12.5 °F 13.0 °F 1002.9 in WSW 24.5 mph 29.1 mph 98 % 0.8 in
02:29 12.6 °F 13.0 °F 1002.9 in WSW 28.0 mph 30.6 mph 98 % 0.5 in
02:34 12.5 °F 13.0 °F 1002.9 in WSW 27.7 mph 30.6 mph 98 % 0.3 in
02:36 12.5 °F 13.0 °F 1002.9 in WSW 20.6 mph 30.6 mph 98 % 0.3 in
02:41 12.5 °F 13.0 °F 1002.9 in WSW 17.2 mph 27.7 mph 98 % 0.5 in
02:46 12.5 °F 13.0 °F 1002.9 in SSW 15.4 mph 32.0 mph 98 % 0.5 in
02:48 12.5 °F 13.0 °F 1002.9 in SW 18.0 mph 32.0 mph 98 % 0.5 in
02:53 12.5 °F 13.0 °F 1002.9 in SW 12.2 mph 32.0 mph 98 % 0.3 in
02:55 12.5 °F 13.0 °F 1002.9 in SSW 14.0 mph 24.8 mph 98 % 0.5 in
03:00 12.5 °F 13.0 °F 1002.9 in SW 21.2 mph 21.2 mph 98 % 0.5 in
03:02 12.5 °F 13.0 °F 1002.9 in WSW 19.5 mph 24.8 mph 98 % 1.0 in
03:07 12.5 °F 13.0 °F 1002.9 in WSW 14.0 mph 24.8 mph 98 % 1.3 in
03:12 12.5 °F 13.0 °F 1002.9 in WSW 12.6 mph 21.6 mph 98 % 1.3 in
03:14 12.5 °F 13.0 °F 1002.9 in SSW 17.7 mph 22.4 mph 98 % 1.3 in
03:16 12.4 °F 13.0 °F 1002.9 in SSW 14.0 mph 23.8 mph 98 % 1.5 in
03:21 12.4 °F 13.0 °F 1002.9 in South 12.6 mph 23.8 mph 98 % 1.5 in
03:23 12.4 °F 13.0 °F 1002.9 in SW 12.2 mph 23.8 mph 98 % 1.5 in
03:27 12.4 °F 13.0 °F 1002.9 in SW 12.6 mph 21.2 mph 98 % 1.5 in
03:30 12.4 °F 13.0 °F 1002.9 in SSW 12.2 mph 20.1 mph 98 % 1.5 in
03:31 12.3 °F 13.0 °F 1002.9 in SW 16.3 mph 20.1 mph 98 % 1.5 in
03:36 12.3 °F 13.0 °F 1002.9 in SSW 16.9 mph 20.9 mph 98 % 1.5 in
03:37 12.3 °F 13.0 °F 1002.9 in SW 13.0 mph 20.9 mph 98 % 1.5 in
03:40 12.3 °F 13.0 °F 1002.9 in SSW 16.6 mph 20.9 mph 98 % 1.8 in
03:45 12.4 °F 13.0 °F 1001.9 in SSW 19.1 mph 21.2 mph 98 % 1.5 in
03:49 12.5 °F 13.0 °F 1001.9 in SSW 23.3 mph 27.4 mph 98 % 1.5 in
03:54 12.5 °F 13.0 °F 1001.9 in SSW 19.5 mph 27.4 mph 98 % 1.5 in
03:55 12.5 °F 13.0 °F 1001.9 in SSW 28.0 mph 28.0 mph 98 % 1.3 in
04:00 12.6 °F 13.0 °F 1001.9 in WSW 16.9 mph 28.0 mph 98 % 1.3 in
04:05 12.7 °F 13.0 °F 1001.9 in WSW 21.2 mph 30.9 mph 98 % 0.8 in
04:06 12.8 °F 13.0 °F 1001.9 in SW 23.0 mph 30.9 mph 98 % 0.5 in
04:07 12.8 °F 13.0 °F 1001.9 in SW 25.6 mph 30.9 mph 98 % 0.5 in
04:13 12.9 °F 13.0 °F 1001.9 in SSW 15.4 mph 30.9 mph 98 % 0.5 in
04:18 13.0 °F 13.0 °F 1001.9 in SSW 24.5 mph 31.7 mph 98 % 0.3 in
04:24 13.1 °F 13.0 °F 1001.9 in SSW 25.3 mph 41.4 mph 97 % 0.3 in
04:29 13.2 °F 13.0 °F 1001.9 in WSW 28.8 mph 41.4 mph 95 % 0.3 in
04:31 13.2 °F 13.0 °F 1001.9 in SW 28.5 mph 32.0 mph 95 % 0.3 in
04:36 13.4 °F 13.0 °F 1001.9 in SW 22.4 mph 42.2 mph 93 % 0.3 in
04:37 13.4 °F 13.0 °F 1001.9 in SW 24.5 mph 42.2 mph 93 % 0.3 in
04:42 13.4 °F 12.0 °F 1001.9 in SSW 27.4 mph 42.2 mph 92 % 0.0 in
04:47 13.5 °F 13.0 °F 1001.9 in SSW 20.1 mph 42.2 mph 91 % 0.0 in
04:49 13.5 °F 12.0 °F 1001.9 in SW 17.7 mph 42.2 mph 90 % 0.0 in
04:54 13.5 °F 12.0 °F 1001.9 in WSW 24.5 mph 31.4 mph 90 % 0.0 in
04:58 13.5 °F 12.0 °F 1001.9 in WSW 23.0 mph 38.5 mph 89 % 0.0 in
05:03 13.5 °F 12.0 °F 1001.9 in SSW 18.3 mph 38.5 mph 89 % 0.0 in
05:08 13.5 °F 12.0 °F 1001.9 in WSW 25.3 mph 27.0 mph 89 % 0.0 in
05:13 13.5 °F 12.0 °F 1001.9 in SW 24.8 mph 34.3 mph 88 % 0.0 in
05:14 13.5 °F 12.0 °F 1001.9 in SSW 28.0 mph 34.3 mph 88 % 0.0 in
05:19 13.5 °F 12.0 °F 1001.9 in SSW 16.6 mph 34.3 mph 88 % 0.0 in
05:23 13.5 °F 12.0 °F 1001.9 in SW 35.2 mph 35.2 mph 87 % 0.0 in
05:28 13.5 °F 12.0 °F 1001.9 in SSW 25.3 mph 35.2 mph 87 % 0.0 in
05:30 13.5 °F 12.0 °F 1001.9 in SW 16.3 mph 35.2 mph 87 % 0.0 in
05:35 13.5 °F 12.0 °F 1001.9 in South 17.2 mph 34.6 mph 87 % 0.0 in
05:36 13.5 °F 12.0 °F 1001.9 in SSW 28.0 mph 32.8 mph 87 % 0.0 in
05:41 13.5 °F 12.0 °F 1000.9 in SSW 17.2 mph 31.4 mph 87 % 0.0 in
05:43 13.5 °F 12.0 °F 1000.9 in SSW 20.9 mph 31.4 mph 87 % 0.0 in
05:48 13.4 °F 11.0 °F 1000.9 in WSW 16.6 mph 31.4 mph 86 % 0.0 in
05:50 13.4 °F 11.0 °F 1000.9 in SW 21.2 mph 30.2 mph 86 % 0.0 in
05:54 13.4 °F 11.0 °F 1000.9 in SW 16.9 mph 30.2 mph 86 % 0.0 in
05:57 13.4 °F 11.0 °F 1000.9 in SSW 30.9 mph 30.9 mph 86 % 0.0 in
06:00 13.4 °F 11.0 °F 1000.9 in SSW 20.9 mph 31.4 mph 86 % 0.0 in
06:05 13.5 °F 12.0 °F 1000.9 in SW 27.7 mph 31.4 mph 85 % 0.0 in
06:09 13.5 °F 12.0 °F 1000.9 in SSW 16.6 mph 30.2 mph 85 % 0.0 in
06:14 13.6 °F 11.0 °F 1000.9 in SSW 23.0 mph 30.2 mph 84 % 0.0 in
06:15 13.6 °F 11.0 °F 1000.9 in SSW 25.3 mph 30.2 mph 84 % 0.0 in
06:20 13.6 °F 11.0 °F 1000.9 in SW 23.8 mph 30.6 mph 84 % 0.0 in
06:24 13.6 °F 11.0 °F 1000.9 in WSW 28.8 mph 32.0 mph 84 % 0.0 in
06:28 13.5 °F 11.0 °F 1000.9 in SSW 21.2 mph 33.8 mph 84 % 0.0 in
06:29 13.5 °F 12.0 °F 1000.9 in SW 27.0 mph 33.8 mph 85 % 0.0 in
06:34 13.3 °F 11.0 °F 1000.9 in SW 29.9 mph 33.8 mph 85 % 0.0 in
06:35 13.3 °F 11.0 °F 1000.9 in SW 27.4 mph 33.8 mph 85 % 0.0 in
06:36 13.3 °F 11.0 °F 1000.9 in SSW 36.4 mph 36.4 mph 85 % 0.0 in
06:37 13.3 °F 11.0 °F 1000.9 in SW 28.0 mph 36.4 mph 86 % 0.0 in
06:41 13.3 °F 11.0 °F 1000.9 in SSW 20.9 mph 36.4 mph 86 % 0.0 in
06:44 13.3 °F 11.0 °F 1000.9 in SSW 16.9 mph 36.7 mph 86 % 0.0 in
06:48 13.2 °F 12.0 °F 1000.9 in WSW 28.5 mph 36.7 mph 87 % 0.0 in
06:51 13.2 °F 12.0 °F 1000.9 in SSW 17.7 mph 36.7 mph 87 % 0.0 in
06:56 13.0 °F 12.0 °F 1000.9 in SW 34.6 mph 34.6 mph 89 % 0.0 in
06:58 12.9 °F 12.0 °F 1000.9 in SW 17.7 mph 34.6 mph 90 % 0.0 in
07:02 12.8 °F 12.0 °F 1000.9 in SSW 20.1 mph 38.5 mph 91 % 0.0 in
07:04 12.7 °F 12.0 °F 1000.9 in SW 23.0 mph 38.5 mph 92 % 0.0 in
07:09 12.5 °F 12.0 °F 1000.9 in SSW 24.5 mph 38.5 mph 93 % 0.0 in
07:14 12.5 °F 12.0 °F 999.9 in SW 25.9 mph 33.1 mph 93 % 0.0 in
07:15 12.5 °F 12.0 °F 999.9 in SSW 17.7 mph 31.7 mph 94 % 0.0 in
07:21 12.4 °F 12.0 °F 999.9 in SW 28.5 mph 35.2 mph 94 % 0.0 in
07:23 12.4 °F 12.0 °F 999.9 in SSW 20.9 mph 35.2 mph 95 % 0.0 in
07:28 12.4 °F 12.0 °F 1000.9 in SW 24.5 mph 35.2 mph 95 % 0.0 in
07:29 12.4 °F 12.0 °F 1000.9 in SSW 24.5 mph 35.2 mph 95 % 0.0 in
07:34 12.5 °F 12.0 °F 1000.9 in WSW 20.1 mph 28.0 mph 95 % 0.0 in
07:36 12.5 °F 13.0 °F 1000.9 in SW 20.1 mph 28.0 mph 96 % 0.0 in
07:41 12.5 °F 12.0 °F 1000.9 in SSW 17.7 mph 31.4 mph 95 % 0.0 in
07:46 12.6 °F 12.0 °F 1000.9 in WSW 27.4 mph 31.4 mph 95 % 0.0 in
07:47 12.6 °F 12.0 °F 1000.9 in SSW 19.8 mph 31.4 mph 95 % 0.0 in
07:49 12.6 °F 12.0 °F 1000.9 in SSW 25.3 mph 30.2 mph 95 % 0.0 in
07:54 12.7 °F 12.0 °F 1000.9 in SW 31.4 mph 31.4 mph 95 % 0.0 in
07:55 12.7 °F 12.0 °F 1000.9 in SW 20.6 mph 31.4 mph 95 % 0.0 in
07:56 12.7 °F 12.0 °F 1000.9 in SW 17.2 mph 31.4 mph 95 % 0.0 in
08:01 12.7 °F 12.0 °F 1000.9 in SSW 25.6 mph 38.1 mph 95 % 0.0 in
08:03 12.7 °F 12.0 °F 1000.9 in SSW 23.3 mph 38.1 mph 95 % 0.0 in
08:04 12.7 °F 12.0 °F 1000.9 in SW 31.7 mph 38.1 mph 95 % 0.0 in
08:09 12.7 °F 12.0 °F 1000.9 in South 24.5 mph 31.7 mph 95 % 0.0 in
08:14 12.6 °F 12.0 °F 1000.9 in SSW 25.9 mph 32.0 mph 95 % 0.0 in
08:16 12.6 °F 13.0 °F 1000.9 in SSW 16.9 mph 32.0 mph 96 % 0.0 in
08:21 12.7 °F 13.0 °F 1000.9 in SSW 23.3 mph 31.7 mph 96 % 0.0 in
08:24 12.7 °F 12.0 °F 1000.9 in SW 20.9 mph 32.0 mph 95 % 0.0 in
08:30 12.8 °F 13.0 °F 1000.9 in SW 17.7 mph 32.0 mph 95 % 0.0 in
08:35 12.8 °F 13.0 °F 1000.9 in SSW 13.0 mph 35.6 mph 95 % 0.0 in
08:36 12.8 °F 13.0 °F 1000.9 in SW 30.6 mph 35.6 mph 95 % 0.0 in
08:41 12.9 °F 13.0 °F 1000.9 in South 17.7 mph 35.6 mph 95 % 0.0 in
08:42 12.9 °F 12.0 °F 1000.9 in South 24.5 mph 35.6 mph 94 % 0.0 in
08:47 12.9 °F 12.0 °F 1000.9 in WSW 16.9 mph 30.2 mph 94 % 0.0 in
08:52 13.0 °F 12.0 °F 1000.9 in SW 18.0 mph 31.7 mph 93 % 0.0 in
08:54 13.0 °F 12.0 °F 1000.9 in SSW 16.6 mph 31.7 mph 93 % 0.0 in
08:56 13.0 °F 12.0 °F 999.9 in WSW 12.6 mph 31.7 mph 93 % 0.0 in
09:01 13.0 °F 12.0 °F 999.9 in SW 20.6 mph 28.0 mph 93 % 0.0 in
09:06 13.1 °F 12.0 °F 999.9 in South 19.5 mph 28.0 mph 92 % 0.0 in
09:09 13.1 °F 12.0 °F 999.9 in WSW 17.7 mph 28.0 mph 92 % 0.0 in
09:14 13.1 °F 12.0 °F 999.9 in SW 14.0 mph 28.0 mph 92 % 0.0 in
09:15 13.1 °F 12.0 °F 999.9 in WSW 28.0 mph 28.0 mph 92 % 0.0 in
09:18 13.1 °F 12.0 °F 999.9 in South 19.5 mph 28.0 mph 92 % 0.0 in
09:23 13.1 °F 12.0 °F 999.9 in South 23.3 mph 28.0 mph 92 % 0.0 in
09:27 13.1 °F 12.0 °F 999.9 in SSW 27.4 mph 31.7 mph 92 % 0.0 in
09:32 13.1 °F 12.0 °F 999.9 in SW 24.5 mph 32.0 mph 92 % 0.0 in
09:34 13.1 °F 12.0 °F 999.9 in SSW 22.7 mph 32.0 mph 92 % 0.0 in
09:39 13.2 °F 12.0 °F 999.9 in SSW 22.7 mph 32.0 mph 92 % 0.0 in
09:42 13.2 °F 12.0 °F 999.9 in WSW 16.6 mph 30.9 mph 92 % 0.0 in
09:44 13.2 °F 12.0 °F 999.9 in SSW 21.2 mph 32.3 mph 92 % 0.0 in
09:49 13.4 °F 12.0 °F 999.9 in South 17.7 mph 32.3 mph 92 % 0.0 in
09:51 13.4 °F 12.0 °F 999.9 in SW 17.2 mph 32.3 mph 92 % 0.0 in
09:55 13.5 °F 13.0 °F 999.9 in SSW 14.3 mph 28.0 mph 91 % 0.0 in
09:58 13.5 °F 13.0 °F 999.9 in South 20.6 mph 27.4 mph 91 % 0.0 in
10:03 13.5 °F 13.0 °F 999.9 in SSW 24.5 mph 30.6 mph 91 % 0.0 in
10:04 13.5 °F 13.0 °F 999.9 in WSW 19.8 mph 30.6 mph 91 % 0.0 in
10:07 13.6 °F 13.0 °F 999.9 in WSW 12.2 mph 30.6 mph 91 % 0.0 in
10:09 13.6 °F 13.0 °F 999.9 in South 15.8 mph 30.6 mph 91 % 0.0 in
10:14 13.6 °F 12.0 °F 999.9 in SW 20.1 mph 28.5 mph 90 % 0.0 in
10:19 13.7 °F 12.0 °F 999.9 in SW 15.1 mph 29.9 mph 90 % 0.0 in
10:20 13.7 °F 12.0 °F 999.9 in SSW 20.1 mph 29.9 mph 90 % 0.0 in
10:25 13.7 °F 12.0 °F 999.9 in SSW 25.6 mph 29.9 mph 89 % 0.0 in
10:27 13.7 °F 12.0 °F 999.9 in WSW 20.1 mph 29.9 mph 89 % 0.0 in
10:32 13.7 °F 12.0 °F 999.9 in SSW 13.0 mph 26.7 mph 89 % 0.0 in
10:34 13.7 °F 12.0 °F 999.9 in SSW 16.6 mph 25.9 mph 89 % 0.0 in
10:36 13.7 °F 12.0 °F 999.9 in WSW 16.9 mph 25.9 mph 89 % 0.0 in
10:39 13.7 °F 12.0 °F 999.9 in SSW 16.6 mph 27.7 mph 89 % 0.0 in
10:45 13.8 °F 12.0 °F 998.9 in SW 36.7 mph 42.2 mph 88 % 0.0 in
10:46 13.8 °F 12.0 °F 998.9 in WSW 19.5 mph 42.2 mph 88 % 0.0 in
10:51 14.0 °F 12.0 °F 998.9 in SSW 27.4 mph 42.2 mph 86 % 0.0 in
10:55 14.1 °F 12.0 °F 998.9 in SSW 20.6 mph 36.7 mph 86 % 0.0 in
10:56 14.1 °F 12.0 °F 998.9 in WSW 21.6 mph 36.7 mph 86 % 0.0 in
11:01 14.1 °F 12.0 °F 998.9 in SW 24.8 mph 39.3 mph 85 % 0.0 in
11:02 14.1 °F 12.0 °F 998.9 in SSW 31.4 mph 39.3 mph 85 % 0.0 in
11:04 14.1 °F 12.0 °F 998.9 in SSW 25.6 mph 39.3 mph 85 % 0.0 in
11:08 14.1 °F 12.0 °F 998.9 in SW 33.8 mph 39.3 mph 84 % 0.0 in
11:13 14.1 °F 12.0 °F 997.9 in WSW 16.9 mph 38.1 mph 85 % 0.0 in
11:18 14.1 °F 12.0 °F 997.9 in SW 32.8 mph 44.2 mph 84 % 0.0 in
11:19 14.1 °F 12.0 °F 997.9 in SSW 25.3 mph 44.2 mph 84 % 0.0 in
11:23 14.2 °F 12.0 °F 997.9 in SW 26.2 mph 44.2 mph 85 % 0.0 in
11:28 14.1 °F 12.0 °F 998.9 in SW 20.9 mph 38.5 mph 84 % 0.0 in
11:34 14.1 °F 12.0 °F 998.9 in SW 24.5 mph 38.5 mph 85 % 0.0 in
11:38 14.1 °F 12.0 °F 998.9 in SW 43.1 mph 44.6 mph 84 % 0.0 in
11:43 14.1 °F 11.0 °F 998.9 in WSW 21.6 mph 44.6 mph 83 % 0.0 in
11:49 14.2 °F 12.0 °F 998.9 in WSW 24.5 mph 39.6 mph 83 % 0.0 in
11:50 14.2 °F 12.0 °F 998.9 in South 16.9 mph 39.6 mph 83 % 0.0 in
11:55 14.2 °F 12.0 °F 998.9 in SSW 35.6 mph 42.8 mph 82 % 0.0 in
11:57 14.2 °F 12.0 °F 998.9 in SW 33.5 mph 42.8 mph 82 % 0.0 in
12:02 14.1 °F 11.0 °F 998.9 in WSW 36.0 mph 40.4 mph 82 % 0.0 in
12:04 13.9 °F 12.0 °F 998.9 in WSW 32.0 mph 40.4 mph 86 % 0.0 in
12:09 13.2 °F 12.0 °F 998.9 in West 27.0 mph 46.0 mph 90 % 1.5 in
12:10 13.1 °F 12.0 °F 998.9 in WSW 38.9 mph 46.0 mph 90 % 1.8 in
12:11 13.0 °F 12.0 °F 998.9 in WSW 40.4 mph 46.0 mph 91 % 2.3 in
12:16 12.7 °F 12.0 °F 998.9 in WSW 20.1 mph 46.0 mph 93 % 2.3 in
12:17 12.7 °F 12.0 °F 998.9 in WSW 25.3 mph 46.0 mph 94 % 2.5 in
12:18 12.7 °F 12.0 °F 998.9 in WSW 30.2 mph 40.7 mph 94 % 2.5 in
12:22 12.6 °F 12.0 °F 998.9 in WSW 24.5 mph 41.4 mph 95 % 2.5 in
12:27 12.5 °F 13.0 °F 997.9 in West 32.0 mph 42.5 mph 96 % 2.8 in
12:31 12.5 °F 13.0 °F 997.9 in WSW 21.2 mph 42.5 mph 97 % 2.8 in
12:34 12.5 °F 13.0 °F 997.9 in SW 22.4 mph 42.5 mph 98 % 3.0 in
12:39 12.5 °F 13.0 °F 997.9 in WSW 27.7 mph 32.0 mph 98 % 3.0 in
12:42 12.4 °F 13.0 °F 998.9 in West 17.7 mph 32.3 mph 98 % 3.3 in
12:47 12.4 °F 13.0 °F 998.9 in WSW 32.0 mph 38.9 mph 98 % 3.3 in
12:49 12.3 °F 13.0 °F 998.9 in WSW 25.9 mph 38.9 mph 98 % 3.8 in
12:54 12.3 °F 13.0 °F 998.9 in WSW 24.8 mph 38.9 mph 98 % 3.8 in
12:59 12.2 °F 12.0 °F 998.9 in WSW 24.8 mph 28.5 mph 98 % 3.8 in
13:03 12.2 °F 12.0 °F 998.9 in WSW 21.2 mph 27.4 mph 98 % 3.8 in
13:04 12.2 °F 12.0 °F 998.9 in WSW 16.9 mph 27.4 mph 98 % 4.1 in
13:09 12.2 °F 12.0 °F 998.9 in SW 17.7 mph 24.5 mph 98 % 2.3 in
13:12 12.2 °F 12.0 °F 998.9 in WSW 21.6 mph 24.5 mph 98 % 1.8 in
13:17 12.2 °F 12.0 °F 998.9 in SW 23.8 mph 24.8 mph 98 % 1.8 in
13:22 12.2 °F 12.0 °F 998.9 in WSW 15.4 mph 24.8 mph 98 % 1.8 in
13:27 12.2 °F 12.0 °F 998.9 in WSW 15.1 mph 24.8 mph 98 % 1.5 in
13:32 12.2 °F 12.0 °F 998.9 in WSW 17.2 mph 23.3 mph 98 % 1.3 in
13:37 12.2 °F 12.0 °F 998.9 in WSW 19.5 mph 27.0 mph 98 % 1.5 in
13:38 12.2 °F 12.0 °F 998.9 in WSW 18.3 mph 27.7 mph 98 % 1.5 in
13:43 12.1 °F 12.0 °F 998.9 in SW 16.9 mph 28.0 mph 98 % 1.3 in
13:45 12.1 °F 12.0 °F 998.9 in WSW 16.6 mph 28.0 mph 98 % 1.3 in
13:50 12.1 °F 12.0 °F 998.9 in WSW 17.7 mph 21.9 mph 98 % 1.3 in
13:52 12.1 °F 12.0 °F 998.9 in WSW 25.6 mph 25.6 mph 98 % 1.3 in
13:57 12.1 °F 12.0 °F 998.9 in SW 19.8 mph 25.6 mph 98 % 1.3 in
14:01 12.1 °F 12.0 °F 998.9 in SW 16.3 mph 25.6 mph 98 % 1.3 in
14:06 12.1 °F 12.0 °F 998.9 in SW 17.2 mph 24.8 mph 98 % 0.8 in
14:11 12.1 °F 12.0 °F 997.9 in SW 15.8 mph 27.4 mph 98 % 1.3 in
14:15 12.1 °F 12.0 °F 997.9 in WSW 12.6 mph 28.5 mph 98 % 1.3 in
14:18 12.1 °F 12.0 °F 997.9 in SW 19.1 mph 28.5 mph 98 % 0.8 in
14:21 12.1 °F 12.0 °F 997.9 in SW 12.2 mph 28.5 mph 98 % 1.3 in
14:26 12.1 °F 12.0 °F 997.9 in SW 13.7 mph 21.2 mph 98 % 1.3 in
14:28 12.1 °F 12.0 °F 997.9 in WSW 9.3 mph 21.2 mph 98 % 1.3 in
14:33 12.0 °F 12.0 °F 997.9 in SW 20.1 mph 21.2 mph 98 % 1.0 in
14:35 12.0 °F 12.0 °F 997.9 in SW 12.6 mph 20.6 mph 98 % 1.3 in
14:40 12.0 °F 12.0 °F 997.9 in WSW 7.9 mph 20.6 mph 98 % 1.3 in
14:44 12.0 °F 12.0 °F 997.9 in WSW 11.9 mph 20.1 mph 98 % 1.3 in
14:49 12.0 °F 12.0 °F 997.9 in SW 13.0 mph 24.8 mph 98 % 1.3 in
14:53 11.9 °F 12.0 °F 997.9 in WSW 12.2 mph 24.8 mph 98 % 1.3 in
14:58 11.9 °F 12.0 °F 997.9 in WSW 20.9 mph 24.8 mph 98 % 1.3 in
14:59 11.9 °F 12.0 °F 997.9 in SSW 10.1 mph 20.9 mph 98 % 1.3 in
15:03 11.8 °F 12.0 °F 997.9 in WSW 13.7 mph 21.2 mph 98 % 1.3 in
15:06 11.8 °F 12.0 °F 997.9 in SSW 16.9 mph 21.2 mph 98 % 1.5 in
15:11 11.8 °F 12.0 °F 997.9 in SW 15.4 mph 21.2 mph 98 % 1.3 in
15:16 11.8 °F 12.0 °F 997.9 in SW 13.7 mph 20.9 mph 98 % 1.5 in
15:21 11.8 °F 12.0 °F 997.9 in SSW 9.7 mph 20.9 mph 98 % 1.3 in
15:26 11.8 °F 12.0 °F 996.8 in SSW 3.5 mph 15.8 mph 98 % 1.3 in
15:31 11.8 °F 12.0 °F 996.8 in SSW 11.9 mph 15.8 mph 98 % 1.5 in
15:35 11.8 °F 12.0 °F 996.8 in SW 11.6 mph 14.0 mph 98 % 1.3 in
15:40 11.8 °F 12.0 °F 996.8 in SSW 11.6 mph 14.0 mph 98 % 1.3 in
15:45 11.8 °F 12.0 °F 996.8 in SW 11.9 mph 14.0 mph 98 % 1.3 in
15:47 11.7 °F 12.0 °F 996.8 in SW 9.3 mph 14.0 mph 98 % 0.8 in
15:52 11.7 °F 12.0 °F 996.8 in WSW 10.5 mph 14.0 mph 98 % 1.3 in
15:53 11.7 °F 12.0 °F 996.8 in SW 9.7 mph 14.0 mph 98 % 1.3 in
15:58 11.7 °F 12.0 °F 996.8 in SSW 11.9 mph 14.0 mph 98 % 1.3 in
16:01 11.7 °F 12.0 °F 996.8 in SW 8.7 mph 14.0 mph 98 % 1.3 in
16:06 11.7 °F 12.0 °F 996.8 in SW 10.1 mph 14.0 mph 98 % 0.8 in
16:07 11.7 °F 12.0 °F 996.8 in SW 10.5 mph 14.0 mph 98 % 0.8 in
16:08 11.7 °F 12.0 °F 996.8 in SW 12.6 mph 14.0 mph 98 % 0.8 in
16:13 11.7 °F 12.0 °F 996.2 in SW 13.7 mph 15.4 mph 98 % 0.5 in
16:16 11.7 °F 12.0 °F 996.2 in SSW 16.6 mph 17.7 mph 98 % 0.5 in
16:21 11.7 °F 12.0 °F 996.2 in SSW 15.1 mph 17.7 mph 98 % 1.0 in
16:26 11.7 °F 12.0 °F 996.8 in WSW 15.4 mph 21.2 mph 98 % 1.0 in
16:31 11.7 °F 12.0 °F 996.8 in SSW 13.7 mph 23.8 mph 98 % 0.8 in
16:36 11.6 °F 12.0 °F 996.8 in SW 17.2 mph 23.8 mph 98 % 0.8 in
16:39 11.6 °F 12.0 °F 996.8 in SSW 19.8 mph 21.2 mph 98 % 0.8 in
16:44 11.6 °F 12.0 °F 996.8 in WSW 21.6 mph 21.6 mph 98 % 1.0 in
16:47 11.6 °F 12.0 °F 996.8 in SW 22.4 mph 22.4 mph 98 % 1.0 in
16:50 11.5 °F 12.0 °F 996.8 in SW 20.9 mph 22.4 mph 98 % 0.8 in
16:52 11.5 °F 12.0 °F 996.8 in SW 12.2 mph 22.4 mph 98 % 0.8 in
16:57 11.5 °F 12.0 °F 996.8 in SW 17.2 mph 28.0 mph 98 % 0.8 in
17:00 11.5 °F 12.0 °F 996.8 in SSW 16.9 mph 28.0 mph 98 % 0.8 in
17:05 11.5 °F 12.0 °F 996.8 in SW 14.0 mph 28.0 mph 98 % 0.8 in
17:06 11.5 °F 12.0 °F 996.8 in SW 14.0 mph 20.1 mph 98 % 1.0 in
17:10 11.5 °F 12.0 °F 996.8 in SSW 12.2 mph 23.0 mph 98 % 1.0 in
17:13 11.5 °F 12.0 °F 996.8 in SW 20.1 mph 23.0 mph 98 % 1.0 in
17:18 11.5 °F 12.0 °F 996.8 in SW 13.0 mph 23.8 mph 98 % 1.0 in
17:19 11.5 °F 12.0 °F 996.8 in WSW 19.8 mph 23.8 mph 98 % 1.0 in
17:24 11.4 °F 11.0 °F 996.8 in WSW 17.2 mph 21.2 mph 98 % 0.8 in
17:25 11.4 °F 11.0 °F 996.8 in WSW 16.9 mph 21.2 mph 98 % 0.8 in
17:30 11.4 °F 11.0 °F 996.8 in WSW 16.6 mph 23.8 mph 98 % 0.8 in
17:31 11.3 °F 11.0 °F 996.8 in WSW 16.3 mph 23.8 mph 98 % 0.8 in
17:32 11.3 °F 11.0 °F 996.8 in SW 14.0 mph 23.8 mph 98 % 0.8 in
17:37 11.3 °F 11.0 °F 996.8 in SSW 12.6 mph 23.8 mph 98 % 1.3 in
17:41 11.3 °F 11.0 °F 996.8 in WSW 15.8 mph 22.4 mph 98 % 1.3 in
17:44 11.2 °F 11.0 °F 996.8 in WSW 21.6 mph 24.8 mph 98 % 1.3 in
17:49 11.0 °F 11.0 °F 996.8 in WSW 37.0 mph 38.9 mph 98 % 1.8 in
17:51 11.0 °F 11.0 °F 996.8 in WSW 46.5 mph 47.5 mph 98 % 2.3 in
17:56 10.8 °F 11.0 °F 997.9 in West 28.8 mph 47.5 mph 98 % 2.5 in
17:58 10.7 °F 11.0 °F 997.9 in WSW 36.0 mph 47.5 mph 98 % 2.8 in
17:59 10.7 °F 11.0 °F 997.9 in WSW 33.1 mph 47.5 mph 98 % 2.8 in
18:04 10.5 °F 11.0 °F 997.9 in SW 25.9 mph 38.1 mph 98 % 3.0 in
18:05 10.5 °F 11.0 °F 997.9 in WSW 20.1 mph 38.1 mph 98 % 2.8 in
18:10 10.3 °F 10.0 °F 997.9 in WSW 23.3 mph 30.6 mph 98 % 3.0 in
18:14 10.2 °F 10.0 °F 996.8 in WSW 22.7 mph 28.5 mph 98 % 3.0 in
18:15 10.2 °F 10.0 °F 996.8 in WSW 23.8 mph 28.5 mph 98 % 3.0 in
18:17 10.1 °F 10.0 °F 996.8 in SW 17.2 mph 28.5 mph 98 % 3.0 in
18:22 10.0 °F 10.0 °F 996.8 in WSW 18.0 mph 24.8 mph 98 % 2.8 in
18:23 10.0 °F 10.0 °F 996.8 in West 16.3 mph 24.8 mph 98 % 2.8 in
18:28 10.0 °F 10.0 °F 996.8 in SW 18.3 mph 30.9 mph 97 % 2.8 in
18:29 10.0 °F 10.0 °F 996.8 in WSW 17.7 mph 30.9 mph 97 % 2.8 in
18:34 9.9 °F 10.0 °F 996.8 in SW 20.6 mph 30.9 mph 98 % 3.0 in
18:35 9.9 °F 10.0 °F 996.8 in SW 21.2 mph 25.9 mph 98 % 3.0 in
18:36 9.9 °F 10.0 °F 996.8 in WSW 23.8 mph 25.9 mph 98 % 2.8 in
18:41 9.9 °F 10.0 °F 996.8 in SSW 15.8 mph 25.9 mph 98 % 2.8 in
18:43 9.9 °F 10.0 °F 996.8 in SW 19.8 mph 24.8 mph 98 % 2.5 in
18:48 9.9 °F 10.0 °F 996.8 in SSW 13.7 mph 21.2 mph 98 % 1.8 in
18:49 9.9 °F 10.0 °F 996.8 in WSW 11.6 mph 21.2 mph 98 % 1.5 in
18:53 9.9 °F 10.0 °F 996.8 in SW 12.2 mph 21.2 mph 98 % 1.3 in
18:55 9.9 °F 10.0 °F 996.8 in SW 12.2 mph 20.1 mph 98 % 1.3 in
19:00 9.9 °F 10.0 °F 996.8 in SSW 14.0 mph 20.1 mph 98 % 0.8 in
19:02 9.9 °F 10.0 °F 996.8 in SW 16.9 mph 17.2 mph 98 % 0.8 in
19:07 9.9 °F 10.0 °F 996.8 in SW 14.0 mph 20.6 mph 98 % 0.8 in
19:12 9.9 °F 10.0 °F 996.8 in SSW 11.9 mph 20.6 mph 98 % 0.3 in
19:18 9.9 °F 10.0 °F 996.8 in WSW 20.1 mph 21.2 mph 98 % 0.3 in
19:21 9.9 °F 10.0 °F 996.8 in SSW 16.6 mph 21.2 mph 98 % 0.3 in
19:26 9.9 °F 10.0 °F 996.8 in SW 27.0 mph 28.8 mph 98 % 0.3 in
19:29 10.0 °F 10.0 °F 996.8 in SW 15.4 mph 28.8 mph 98 % 0.3 in
19:34 10.0 °F 10.0 °F 996.8 in WSW 24.8 mph 28.8 mph 97 % 0.0 in
19:35 10.0 °F 10.0 °F 996.8 in SW 25.3 mph 28.8 mph 97 % 0.0 in
19:39 10.0 °F 10.0 °F 996.8 in WSW 26.2 mph 28.0 mph 97 % 0.0 in
19:42 10.1 °F 10.0 °F 996.8 in WSW 21.2 mph 28.0 mph 97 % 0.0 in
19:47 10.1 °F 10.0 °F 996.8 in WSW 20.9 mph 28.0 mph 97 % 0.0 in
19:50 10.1 °F 10.0 °F 996.8 in WSW 16.9 mph 28.0 mph 97 % 0.0 in
19:55 10.1 °F 10.0 °F 996.8 in WSW 25.3 mph 38.5 mph 96 % 0.0 in
19:57 10.1 °F 10.0 °F 996.8 in WSW 35.6 mph 41.0 mph 96 % 0.0 in
20:02 10.2 °F 9.0 °F 996.8 in WSW 23.0 mph 41.0 mph 93 % 0.0 in
20:07 10.1 °F 9.0 °F 996.8 in WSW 28.0 mph 39.6 mph 92 % 0.0 in
20:09 10.1 °F 9.0 °F 996.8 in WSW 32.0 mph 38.5 mph 92 % 0.0 in
20:14 10.1 °F 9.0 °F 996.2 in WSW 38.1 mph 43.6 mph 91 % 0.0 in
20:15 10.1 °F 9.0 °F 996.2 in SW 24.5 mph 43.6 mph 91 % 0.0 in
20:20 10.1 °F 9.0 °F 996.2 in WSW 27.7 mph 43.6 mph 91 % 0.0 in
20:23 10.1 °F 9.0 °F 996.2 in WSW 17.2 mph 38.5 mph 91 % 0.0 in
20:25 10.1 °F 9.0 °F 996.2 in WSW 23.0 mph 38.5 mph 91 % 0.0 in
20:30 10.0 °F 8.0 °F 996.8 in WSW 24.5 mph 38.5 mph 88 % 0.0 in
20:35 9.9 °F 9.0 °F 996.8 in WSW 20.9 mph 33.5 mph 89 % 0.0 in
20:38 9.9 °F 9.0 °F 996.8 in WSW 24.5 mph 36.4 mph 89 % 0.0 in
20:40 9.9 °F 9.0 °F 996.2 in WSW 27.7 mph 39.6 mph 89 % 0.0 in
20:44 9.8 °F 8.0 °F 996.2 in WSW 27.7 mph 39.6 mph 90 % 0.0 in
20:49 9.8 °F 8.0 °F 996.2 in WSW 32.8 mph 39.6 mph 90 % 0.0 in
20:54 9.8 °F 8.0 °F 996.2 in WSW 29.9 mph 35.2 mph 90 % 0.0 in
20:58 9.9 °F 9.0 °F 996.8 in SW 19.8 mph 32.8 mph 90 % 0.0 in
21:04 9.9 °F 9.0 °F 996.8 in WSW 17.7 mph 33.5 mph 89 % 0.0 in
21:09 9.9 °F 8.0 °F 996.8 in WSW 25.3 mph 33.8 mph 88 % 0.0 in
21:13 9.9 °F 8.0 °F 996.8 in WSW 24.5 mph 37.5 mph 87 % 0.0 in
21:18 9.8 °F 8.0 °F 996.8 in WSW 37.5 mph 37.5 mph 87 % 0.0 in
21:23 9.8 °F 8.0 °F 996.8 in WSW 29.9 mph 42.5 mph 86 % 0.0 in
21:24 9.8 °F 8.0 °F 996.8 in WSW 24.8 mph 42.5 mph 86 % 0.0 in
21:26 9.8 °F 8.0 °F 996.8 in WSW 16.9 mph 42.5 mph 86 % 0.0 in
21:31 9.8 °F 8.0 °F 996.8 in WSW 24.5 mph 42.5 mph 87 % 0.0 in
21:37 9.9 °F 8.0 °F 996.8 in WSW 32.0 mph 32.8 mph 87 % 0.0 in
21:38 9.9 °F 8.0 °F 996.8 in WSW 21.2 mph 32.8 mph 87 % 0.0 in
21:43 9.9 °F 8.0 °F 996.8 in WSW 37.8 mph 37.8 mph 87 % 0.0 in
21:44 9.9 °F 8.0 °F 996.8 in WSW 24.8 mph 37.8 mph 87 % 0.0 in
21:49 9.9 °F 8.0 °F 996.8 in WSW 21.2 mph 37.8 mph 85 % 0.0 in
21:51 9.8 °F 8.0 °F 996.8 in WSW 26.7 mph 37.8 mph 85 % 0.0 in
21:54 9.8 °F 7.0 °F 996.8 in WSW 24.8 mph 41.4 mph 84 % 0.0 in
21:56 9.7 °F 7.0 °F 996.8 in WSW 24.8 mph 41.4 mph 84 % 0.0 in
22:01 9.6 °F 7.0 °F 996.8 in WSW 20.9 mph 41.4 mph 83 % 0.0 in
22:03 9.6 °F 7.0 °F 996.8 in SW 31.4 mph 39.3 mph 83 % 0.0 in
22:07 9.5 °F 7.0 °F 996.8 in WSW 38.9 mph 48.9 mph 81 % 0.0 in
22:08 9.5 °F 6.0 °F 996.8 in WSW 35.2 mph 48.9 mph 79 % 0.0 in
22:13 9.4 °F 6.0 °F 996.8 in WSW 30.6 mph 60.2 mph 76 % 0.0 in
22:14 9.4 °F 6.0 °F 996.8 in WSW 32.8 mph 60.2 mph 76 % 0.0 in
22:19 9.2 °F 6.0 °F 996.8 in SW 37.0 mph 60.2 mph 77 % 0.0 in
22:24 9.1 °F 6.0 °F 996.8 in WSW 31.7 mph 44.6 mph 78 % 0.0 in
22:25 9.1 °F 6.0 °F 996.8 in WSW 28.0 mph 44.6 mph 78 % 0.0 in
22:28 9.1 °F 6.0 °F 996.8 in WSW 28.0 mph 44.6 mph 78 % 0.0 in
22:32 9.0 °F 6.0 °F 996.8 in WSW 19.5 mph 42.8 mph 78 % 0.0 in
22:37 9.0 °F 6.0 °F 996.8 in SW 38.5 mph 46.5 mph 77 % 0.0 in
22:40 9.0 °F 6.0 °F 996.8 in WSW 35.6 mph 46.5 mph 77 % 0.0 in
22:45 8.9 °F 6.0 °F 996.8 in SW 29.1 mph 44.6 mph 78 % 0.0 in
22:46 8.9 °F 6.0 °F 996.8 in WSW 28.5 mph 44.6 mph 78 % 0.0 in
22:51 8.9 °F 6.0 °F 996.8 in WSW 37.8 mph 42.8 mph 77 % 0.0 in
22:56 8.9 °F 6.0 °F 996.8 in SW 32.0 mph 42.8 mph 77 % 0.0 in
22:58 8.9 °F 6.0 °F 996.8 in WSW 34.3 mph 46.5 mph 77 % 0.0 in
23:03 8.8 °F 6.0 °F 996.8 in WSW 27.0 mph 46.5 mph 77 % 0.0 in
23:06 8.8 °F 6.0 °F 996.8 in SW 29.9 mph 46.5 mph 77 % 0.0 in
23:11 8.8 °F 6.0 °F 996.8 in SW 23.8 mph 43.6 mph 77 % 0.0 in
23:14 8.7 °F 5.0 °F 997.9 in WSW 30.2 mph 48.3 mph 77 % 0.0 in
23:17 8.7 °F 5.0 °F 997.9 in WSW 40.7 mph 48.3 mph 78 % 0.0 in
23:22 8.8 °F 6.0 °F 997.9 in WSW 23.0 mph 45.7 mph 78 % 0.0 in
23:23 8.8 °F 6.0 °F 997.9 in SW 31.4 mph 45.7 mph 78 % 0.0 in
23:28 8.6 °F 6.0 °F 997.9 in WSW 28.5 mph 46.0 mph 82 % 0.0 in
23:29 8.6 °F 6.0 °F 997.9 in WSW 38.1 mph 46.0 mph 82 % 0.0 in
23:34 8.4 °F 6.0 °F 997.9 in WSW 31.4 mph 46.0 mph 85 % 0.3 in
23:35 8.4 °F 6.0 °F 997.9 in West 36.4 mph 46.0 mph 85 % 0.5 in
23:36 8.4 °F 6.0 °F 997.9 in WSW 41.4 mph 46.0 mph 85 % 0.5 in
23:41 8.2 °F 6.0 °F 997.9 in WSW 25.6 mph 43.9 mph 87 % 0.5 in
23:46 8.0 °F 6.0 °F 997.9 in WSW 53.3 mph 53.3 mph 87 % 0.5 in
23:47 8.0 °F 6.0 °F 997.9 in West 44.6 mph 53.3 mph 87 % 0.8 in
23:52 7.7 °F 6.0 °F 997.9 in WSW 38.1 mph 53.3 mph 87 % 0.8 in
23:53 7.7 °F 6.0 °F 997.9 in WSW 36.4 mph 53.3 mph 87 % 0.8 in
23:58 7.4 °F 6.0 °F 997.9 in WSW 31.7 mph 50.4 mph 89 % 0.8 in
Le Gheer Warneton
Courtoisie de Weather Underground - 3 mb

Mise a jour : 21/02/2018 12:13:11
Généré par Cumulus 1.9.4 (1099)